Year,Month,Day,Hour,Minute,Value (Times are PST for temperature in C)
2010,04,08,00,00,3.40
2010,04,08,00,01,3.00
2010,04,08,00,02,2.80
2010,04,08,00,03,2.60
2010,04,08,00,04,2.40
2010,04,08,00,05,2.30
2010,04,08,00,06,2.10
2010,04,08,00,07,1.90
2010,04,08,00,08,1.80
2010,04,08,00,09,1.70
2010,04,08,00,10,1.60
2010,04,08,00,11,1.50
2010,04,08,00,12,1.50
2010,04,08,00,13,1.40
2010,04,08,00,14,1.30
2010,04,08,00,15,1.30
2010,04,08,00,16,1.30
2010,04,08,00,17,1.30
2010,04,08,00,18,1.20
2010,04,08,00,19,1.20
2010,04,08,00,20,1.20
2010,04,08,00,21,1.10
2010,04,08,00,22,1.10
2010,04,08,00,23,1.00
2010,04,08,00,24,1.00
2010,04,08,00,25,0.90
2010,04,08,00,26,0.90
2010,04,08,00,27,0.90
2010,04,08,00,28,0.90
2010,04,08,00,29,0.80
2010,04,08,00,30,0.80
2010,04,08,00,31,0.80
2010,04,08,00,32,0.80
2010,04,08,00,33,0.80
2010,04,08,00,34,0.70
2010,04,08,00,35,0.70
2010,04,08,00,36,0.70
2010,04,08,00,37,0.70
2010,04,08,00,38,0.70
2010,04,08,00,39,0.70
2010,04,08,00,40,0.70
2010,04,08,00,41,0.60
2010,04,08,00,42,0.60
2010,04,08,00,43,0.60
2010,04,08,00,44,0.60
2010,04,08,00,45,0.60
2010,04,08,00,46,0.60
2010,04,08,00,47,0.60
2010,04,08,00,48,0.50
2010,04,08,00,49,0.50
2010,04,08,00,50,0.50
2010,04,08,00,51,0.50
2010,04,08,00,52,0.40
2010,04,08,00,53,0.40
2010,04,08,00,54,0.40
2010,04,08,00,55,0.40
2010,04,08,00,56,0.40
2010,04,08,00,57,0.40
2010,04,08,00,58,0.40
2010,04,08,00,59,0.40
2010,04,08,01,00,0.40
2010,04,08,01,01,0.40
2010,04,08,01,02,0.50
2010,04,08,01,03,0.50
2010,04,08,01,04,0.60
2010,04,08,01,05,0.60
2010,04,08,01,06,0.70
2010,04,08,01,07,0.70
2010,04,08,01,08,0.70
2010,04,08,01,09,0.80
2010,04,08,01,10,0.80
2010,04,08,01,11,0.80
2010,04,08,01,12,0.80
2010,04,08,01,13,0.80
2010,04,08,01,14,0.80
2010,04,08,01,15,0.80
2010,04,08,01,16,0.80
2010,04,08,01,17,0.70
2010,04,08,01,18,0.70
2010,04,08,01,19,0.70
2010,04,08,01,20,0.70
2010,04,08,01,21,0.70
2010,04,08,01,22,0.70
2010,04,08,01,23,0.70
2010,04,08,01,24,0.60
2010,04,08,01,25,0.60
2010,04,08,01,26,0.60
2010,04,08,01,27,0.60
2010,04,08,01,28,0.60
2010,04,08,01,29,0.60
2010,04,08,01,30,0.60
2010,04,08,01,31,0.60
2010,04,08,01,32,0.60
2010,04,08,01,33,0.60
2010,04,08,01,34,0.60
2010,04,08,01,35,0.60
2010,04,08,01,36,0.60
2010,04,08,01,37,0.60
2010,04,08,01,38,0.60
2010,04,08,01,39,0.60
2010,04,08,01,40,0.60
2010,04,08,01,41,0.60
2010,04,08,01,42,0.60
2010,04,08,01,43,0.60
2010,04,08,01,44,0.60
2010,04,08,01,45,0.60
2010,04,08,01,46,0.60
2010,04,08,01,47,0.60
2010,04,08,01,48,0.70
2010,04,08,01,49,0.70
2010,04,08,01,50,0.70
2010,04,08,01,51,0.70
2010,04,08,01,52,0.70
2010,04,08,01,53,0.70
2010,04,08,01,54,0.70
2010,04,08,01,55,0.70
2010,04,08,01,56,0.70
2010,04,08,01,57,0.70
2010,04,08,01,58,0.70
2010,04,08,01,59,0.70
2010,04,08,02,00,0.80
2010,04,08,02,01,0.80
2010,04,08,02,02,0.80
2010,04,08,02,03,0.80
2010,04,08,02,04,0.80
2010,04,08,02,05,0.80
2010,04,08,02,06,0.80
2010,04,08,02,07,0.80
2010,04,08,02,08,0.90
2010,04,08,02,09,0.90
2010,04,08,02,10,0.90
2010,04,08,02,11,0.90
2010,04,08,02,12,0.90
2010,04,08,02,13,0.90
2010,04,08,02,14,1.00
2010,04,08,02,15,1.00
2010,04,08,02,16,1.10
2010,04,08,02,17,1.10
2010,04,08,02,18,1.10
2010,04,08,02,19,1.10
2010,04,08,02,20,1.20
2010,04,08,02,21,1.20
2010,04,08,02,22,1.20
2010,04,08,02,23,1.20
2010,04,08,02,24,1.30
2010,04,08,02,25,1.30
2010,04,08,02,26,1.30
2010,04,08,02,27,1.30
2010,04,08,02,28,1.30
2010,04,08,02,29,1.30
2010,04,08,02,30,1.30
2010,04,08,02,31,1.30
2010,04,08,02,32,1.30
2010,04,08,02,33,1.30
2010,04,08,02,34,1.30
2010,04,08,02,35,1.30
2010,04,08,02,36,1.40
2010,04,08,02,37,1.40
2010,04,08,02,38,1.50
2010,04,08,02,39,1.50
2010,04,08,02,40,1.50
2010,04,08,02,41,1.50
2010,04,08,02,42,1.60
2010,04,08,02,43,1.60
2010,04,08,02,44,1.60
2010,04,08,02,45,1.60
2010,04,08,02,46,1.60
2010,04,08,02,47,1.60
2010,04,08,02,48,1.70
2010,04,08,02,49,1.70
2010,04,08,02,50,1.70
2010,04,08,02,51,1.70
2010,04,08,02,52,1.70
2010,04,08,02,53,1.70
2010,04,08,02,54,1.70
2010,04,08,02,55,1.70
2010,04,08,02,56,1.70
2010,04,08,02,57,1.70
2010,04,08,02,58,1.70
2010,04,08,02,59,1.70
2010,04,08,03,00,1.70
2010,04,08,03,01,1.70
2010,04,08,03,02,1.70
2010,04,08,03,03,1.70
2010,04,08,03,04,1.80
2010,04,08,03,05,1.80
2010,04,08,03,06,1.80
2010,04,08,03,07,1.80
2010,04,08,03,08,1.80
2010,04,08,03,09,1.80
2010,04,08,03,10,1.80
2010,04,08,03,11,1.80
2010,04,08,03,12,1.80
2010,04,08,03,13,1.80
2010,04,08,03,14,1.80
2010,04,08,03,15,1.80
2010,04,08,03,16,1.80
2010,04,08,03,17,1.80
2010,04,08,03,18,1.80
2010,04,08,03,19,1.90
2010,04,08,03,20,1.90
2010,04,08,03,21,1.90
2010,04,08,03,22,1.90
2010,04,08,03,23,1.90
2010,04,08,03,24,1.90
2010,04,08,03,25,1.90
2010,04,08,03,26,1.90
2010,04,08,03,27,1.90
2010,04,08,03,28,1.90
2010,04,08,03,29,1.90
2010,04,08,03,30,1.90
2010,04,08,03,31,1.90
2010,04,08,03,32,1.90
2010,04,08,03,33,1.90
2010,04,08,03,34,1.90
2010,04,08,03,35,1.90
2010,04,08,03,36,1.90
2010,04,08,03,37,1.90
2010,04,08,03,38,1.90
2010,04,08,03,39,1.90
2010,04,08,03,40,1.90
2010,04,08,03,41,1.90
2010,04,08,03,42,1.80
2010,04,08,03,43,1.80
2010,04,08,03,44,1.80
2010,04,08,03,45,1.80
2010,04,08,03,46,1.80
2010,04,08,03,47,1.80
2010,04,08,03,48,1.80
2010,04,08,03,49,1.80
2010,04,08,03,50,1.80
2010,04,08,03,51,1.80
2010,04,08,03,52,1.80
2010,04,08,03,53,1.80
2010,04,08,03,54,1.80
2010,04,08,03,55,1.80
2010,04,08,03,56,1.80
2010,04,08,03,57,1.80
2010,04,08,03,58,1.80
2010,04,08,03,59,1.80
2010,04,08,04,00,1.80
2010,04,08,04,01,1.70
2010,04,08,04,02,1.70
2010,04,08,04,03,1.70
2010,04,08,04,04,1.70
2010,04,08,04,05,1.70
2010,04,08,04,06,1.70
2010,04,08,04,07,1.70
2010,04,08,04,08,1.70
2010,04,08,04,09,1.70
2010,04,08,04,10,1.70
2010,04,08,04,11,1.60
2010,04,08,04,12,1.60
2010,04,08,04,13,1.60
2010,04,08,04,14,1.60
2010,04,08,04,15,1.60
2010,04,08,04,16,1.50
2010,04,08,04,17,1.50
2010,04,08,04,18,1.50
2010,04,08,04,19,1.50
2010,04,08,04,20,1.50
2010,04,08,04,21,1.50
2010,04,08,04,22,1.50
2010,04,08,04,23,1.40
2010,04,08,04,24,1.40
2010,04,08,04,25,1.30
2010,04,08,04,26,1.30
2010,04,08,04,27,1.30
2010,04,08,04,28,1.30
2010,04,08,04,29,1.30
2010,04,08,04,30,1.30
2010,04,08,04,31,1.30
2010,04,08,04,32,1.30
2010,04,08,04,33,1.30
2010,04,08,04,34,1.30
2010,04,08,04,35,1.30
2010,04,08,04,36,1.20
2010,04,08,04,37,1.20
2010,04,08,04,38,1.20
2010,04,08,04,39,1.20
2010,04,08,04,40,1.20
2010,04,08,04,41,1.20
2010,04,08,04,42,1.30
2010,04,08,04,43,1.30
2010,04,08,04,44,1.30
2010,04,08,04,45,1.30
2010,04,08,04,46,1.30
2010,04,08,04,47,1.30
2010,04,08,04,48,1.30
2010,04,08,04,49,1.30
2010,04,08,04,50,1.40
2010,04,08,04,51,1.40
2010,04,08,04,52,1.40
2010,04,08,04,53,1.40
2010,04,08,04,54,1.50
2010,04,08,04,55,1.50
2010,04,08,04,56,1.50
2010,04,08,04,57,1.50
2010,04,08,04,58,1.40
2010,04,08,04,59,1.40
2010,04,08,05,00,1.30
2010,04,08,05,01,1.30
2010,04,08,05,02,1.30
2010,04,08,05,03,1.30
2010,04,08,05,04,1.30
2010,04,08,05,05,1.30
2010,04,08,05,06,1.30
2010,04,08,05,07,1.30
2010,04,08,05,08,1.30
2010,04,08,05,09,1.30
2010,04,08,05,10,1.30
2010,04,08,05,11,1.30
2010,04,08,05,12,1.30
2010,04,08,05,13,1.30
2010,04,08,05,14,1.30
2010,04,08,05,15,1.30
2010,04,08,05,16,1.30
2010,04,08,05,17,1.30
2010,04,08,05,18,1.30
2010,04,08,05,19,1.30
2010,04,08,05,20,1.30
2010,04,08,05,21,1.30
2010,04,08,05,22,1.30
2010,04,08,05,23,1.40
2010,04,08,05,24,1.40
2010,04,08,05,25,1.50
2010,04,08,05,26,1.50
2010,04,08,05,27,1.60
2010,04,08,05,28,1.60
2010,04,08,05,29,1.70
2010,04,08,05,30,1.70
2010,04,08,05,31,1.70
2010,04,08,05,32,1.80
2010,04,08,05,33,1.90
2010,04,08,05,34,1.90
2010,04,08,05,35,2.00
2010,04,08,05,36,2.00
2010,04,08,05,37,2.00
2010,04,08,05,38,2.10
2010,04,08,05,39,2.10
2010,04,08,05,40,2.10
2010,04,08,05,41,2.20
2010,04,08,05,42,2.20
2010,04,08,05,43,2.20
2010,04,08,05,44,2.20
2010,04,08,05,45,2.30
2010,04,08,05,46,2.30
2010,04,08,05,47,2.30
2010,04,08,05,48,2.30
2010,04,08,05,49,2.30
2010,04,08,05,50,2.30
2010,04,08,05,51,2.30
2010,04,08,05,52,2.30
2010,04,08,05,53,2.30
2010,04,08,05,54,2.30
2010,04,08,05,55,2.30
2010,04,08,05,56,2.30
2010,04,08,05,57,2.30
2010,04,08,05,58,2.30
2010,04,08,05,59,2.30
2010,04,08,06,00,2.30
2010,04,08,06,01,2.30
2010,04,08,06,02,2.30
2010,04,08,06,03,2.30
2010,04,08,06,04,2.30
2010,04,08,06,05,2.30
2010,04,08,06,06,2.30
2010,04,08,06,07,2.30
2010,04,08,06,08,2.20
2010,04,08,06,09,2.20
2010,04,08,06,10,2.20
2010,04,08,06,11,2.20
2010,04,08,06,12,2.20
2010,04,08,06,13,2.20
2010,04,08,06,14,2.20
2010,04,08,06,15,2.20
2010,04,08,06,16,2.20
2010,04,08,06,17,2.20
2010,04,08,06,18,2.10
2010,04,08,06,19,2.10
2010,04,08,06,20,2.10
2010,04,08,06,21,2.10
2010,04,08,06,22,2.10
2010,04,08,06,23,2.10
2010,04,08,06,24,2.00
2010,04,08,06,25,2.00
2010,04,08,06,26,2.00
2010,04,08,06,27,2.00
2010,04,08,06,28,2.00
2010,04,08,06,29,1.90
2010,04,08,06,30,1.90
2010,04,08,06,31,1.90
2010,04,08,06,32,1.90
2010,04,08,06,33,1.90
2010,04,08,06,34,1.90
2010,04,08,06,35,1.90
2010,04,08,06,36,1.90
2010,04,08,06,37,1.90
2010,04,08,06,38,1.90
2010,04,08,06,39,1.90
2010,04,08,06,40,1.90
2010,04,08,06,41,1.90
2010,04,08,06,42,1.90
2010,04,08,06,43,1.90
2010,04,08,06,44,1.90
2010,04,08,06,45,1.90
2010,04,08,06,46,1.90
2010,04,08,06,47,1.90
2010,04,08,06,48,1.90
2010,04,08,06,49,1.90
2010,04,08,06,50,1.80
2010,04,08,06,51,1.80
2010,04,08,06,52,1.80
2010,04,08,06,53,1.80
2010,04,08,06,54,1.80
2010,04,08,06,55,1.80
2010,04,08,06,56,1.70
2010,04,08,06,57,1.70
2010,04,08,06,58,1.70
2010,04,08,06,59,1.70
2010,04,08,07,00,1.70
2010,04,08,07,01,1.60
2010,04,08,07,02,1.60
2010,04,08,07,03,1.60
2010,04,08,07,04,1.60
2010,04,08,07,05,1.60
2010,04,08,07,06,1.50
2010,04,08,07,07,1.50
2010,04,08,07,08,1.60
2010,04,08,07,09,1.60
2010,04,08,07,10,1.60
2010,04,08,07,11,1.60
2010,04,08,07,12,1.60
2010,04,08,07,13,1.70
2010,04,08,07,14,1.70
2010,04,08,07,15,1.70
2010,04,08,07,16,1.70
2010,04,08,07,17,1.70
2010,04,08,07,18,1.70
2010,04,08,07,19,1.70
2010,04,08,07,20,1.80
2010,04,08,07,21,1.80
2010,04,08,07,22,1.80
2010,04,08,07,23,1.80
2010,04,08,07,24,1.80
2010,04,08,07,25,1.80
2010,04,08,07,26,1.80
2010,04,08,07,27,1.80
2010,04,08,07,28,1.90
2010,04,08,07,29,1.90
2010,04,08,07,30,1.90
2010,04,08,07,31,1.90
2010,04,08,07,32,1.90
2010,04,08,07,33,1.90
2010,04,08,07,34,2.00
2010,04,08,07,35,2.00
2010,04,08,07,36,2.10
2010,04,08,07,37,2.10
2010,04,08,07,38,2.20
2010,04,08,07,39,2.20
2010,04,08,07,40,2.30
2010,04,08,07,41,2.30
2010,04,08,07,42,2.30
2010,04,08,07,43,2.40
2010,04,08,07,44,2.40
2010,04,08,07,45,2.50
2010,04,08,07,46,2.60
2010,04,08,07,47,2.60
2010,04,08,07,48,2.60
2010,04,08,07,49,2.70
2010,04,08,07,50,2.70
2010,04,08,07,51,2.80
2010,04,08,07,52,2.80
2010,04,08,07,53,2.80
2010,04,08,07,54,2.90
2010,04,08,07,55,2.90
2010,04,08,07,56,3.00
2010,04,08,07,57,3.10
2010,04,08,07,58,3.10
2010,04,08,07,59,3.20
2010,04,08,08,00,3.30
2010,04,08,08,01,3.40
2010,04,08,08,02,3.40
2010,04,08,08,03,3.50
2010,04,08,08,04,3.60
2010,04,08,08,05,3.60
2010,04,08,08,06,3.70
2010,04,08,08,07,3.70
2010,04,08,08,08,3.80
2010,04,08,08,09,3.80
2010,04,08,08,10,3.90
2010,04,08,08,11,4.00
2010,04,08,08,12,4.00
2010,04,08,08,13,4.10
2010,04,08,08,14,4.10
2010,04,08,08,15,4.20
2010,04,08,08,16,4.20
2010,04,08,08,17,4.30
2010,04,08,08,18,4.30
2010,04,08,08,19,4.30
2010,04,08,08,20,4.40
2010,04,08,08,21,4.40
2010,04,08,08,22,4.50
2010,04,08,08,23,4.50
2010,04,08,08,24,4.60
2010,04,08,08,25,4.60
2010,04,08,08,26,4.70
2010,04,08,08,27,4.70
2010,04,08,08,28,4.80
2010,04,08,08,29,4.80
2010,04,08,08,30,4.80
2010,04,08,08,31,4.90
2010,04,08,08,32,4.90
2010,04,08,08,33,4.90
2010,04,08,08,34,5.00
2010,04,08,08,35,5.00
2010,04,08,08,36,5.10
2010,04,08,08,37,5.10
2010,04,08,08,38,5.10
2010,04,08,08,39,5.10
2010,04,08,08,40,5.20
2010,04,08,08,41,5.20
2010,04,08,08,42,5.20
2010,04,08,08,43,5.20
2010,04,08,08,44,5.20
2010,04,08,08,45,5.20
2010,04,08,08,46,5.30
2010,04,08,08,47,5.30
2010,04,08,08,48,5.30
2010,04,08,08,49,5.30
2010,04,08,08,50,5.30
2010,04,08,08,51,5.40
2010,04,08,08,52,5.40
2010,04,08,08,53,5.40
2010,04,08,08,54,5.40
2010,04,08,08,55,5.40
2010,04,08,08,56,5.40
2010,04,08,08,57,5.50
2010,04,08,08,58,5.50
2010,04,08,08,59,5.60
2010,04,08,09,00,5.60
2010,04,08,09,01,5.60
2010,04,08,09,02,5.60
2010,04,08,09,03,5.70
2010,04,08,09,04,5.70
2010,04,08,09,05,5.70
2010,04,08,09,06,5.80
2010,04,08,09,07,5.80
2010,04,08,09,08,5.90
2010,04,08,09,09,6.00
2010,04,08,09,10,6.10
2010,04,08,09,11,6.20
2010,04,08,09,12,6.30
2010,04,08,09,13,6.30
2010,04,08,09,14,6.30
2010,04,08,09,15,6.40
2010,04,08,09,16,6.40
2010,04,08,09,17,6.40
2010,04,08,09,18,6.40
2010,04,08,09,19,6.40
2010,04,08,09,20,6.40
2010,04,08,09,21,6.40
2010,04,08,09,22,6.40
2010,04,08,09,23,6.40
2010,04,08,09,24,6.40
2010,04,08,09,25,6.40
2010,04,08,09,26,6.40
2010,04,08,09,27,6.40
2010,04,08,09,28,6.40
2010,04,08,09,29,6.40
2010,04,08,09,30,6.30
2010,04,08,09,31,6.30
2010,04,08,09,32,6.30
2010,04,08,09,33,6.30
2010,04,08,09,34,6.30
2010,04,08,09,35,6.30
2010,04,08,09,36,6.30
2010,04,08,09,37,6.30
2010,04,08,09,38,6.20
2010,04,08,09,39,6.20
2010,04,08,09,40,6.20
2010,04,08,09,41,6.30
2010,04,08,09,42,6.30
2010,04,08,09,43,6.30
2010,04,08,09,44,6.30
2010,04,08,09,45,6.30
2010,04,08,09,46,6.30
2010,04,08,09,47,6.30
2010,04,08,09,48,6.40
2010,04,08,09,49,6.40
2010,04,08,09,50,6.50
2010,04,08,09,51,6.60
2010,04,08,09,52,6.60
2010,04,08,09,53,6.70
2010,04,08,09,54,6.70
2010,04,08,09,55,6.80
2010,04,08,09,56,6.80
2010,04,08,09,57,6.70
2010,04,08,09,58,6.70
2010,04,08,09,59,6.70
2010,04,08,10,00,6.70
2010,04,08,10,01,6.80
2010,04,08,10,02,6.80
2010,04,08,10,03,6.80
2010,04,08,10,04,6.80
2010,04,08,10,05,6.90
2010,04,08,10,06,7.00
2010,04,08,10,07,7.00
2010,04,08,10,08,7.00
2010,04,08,10,09,7.00
2010,04,08,10,10,7.00
2010,04,08,10,11,7.10
2010,04,08,10,12,7.10
2010,04,08,10,13,7.10
2010,04,08,10,14,7.20
2010,04,08,10,15,7.20
2010,04,08,10,16,7.20
2010,04,08,10,17,7.10
2010,04,08,10,18,7.10
2010,04,08,10,19,7.10
2010,04,08,10,20,7.10
2010,04,08,10,21,7.10
2010,04,08,10,22,7.10
2010,04,08,10,23,7.10
2010,04,08,10,24,7.10
2010,04,08,10,25,7.20
2010,04,08,10,26,7.20
2010,04,08,10,27,7.20
2010,04,08,10,28,7.20
2010,04,08,10,29,7.20
2010,04,08,10,30,7.20
2010,04,08,10,31,7.30
2010,04,08,10,32,7.40
2010,04,08,10,33,7.40
2010,04,08,10,34,7.40
2010,04,08,10,35,7.50
2010,04,08,10,36,7.60
2010,04,08,10,37,7.60
2010,04,08,10,38,7.70
2010,04,08,10,39,7.80
2010,04,08,10,40,7.80
2010,04,08,10,41,7.80
2010,04,08,10,42,7.80
2010,04,08,10,43,7.80
2010,04,08,10,44,7.80
2010,04,08,10,45,7.80
2010,04,08,10,46,7.80
2010,04,08,10,47,7.80
2010,04,08,10,48,7.70
2010,04,08,10,49,7.70
2010,04,08,10,50,7.70
2010,04,08,10,51,7.80
2010,04,08,10,52,7.70
2010,04,08,10,53,7.70
2010,04,08,10,54,7.70
2010,04,08,10,55,7.70
2010,04,08,10,56,7.70
2010,04,08,10,57,7.70
2010,04,08,10,58,7.80
2010,04,08,10,59,7.70
2010,04,08,11,00,7.70
2010,04,08,11,01,7.70
2010,04,08,11,02,7.70
2010,04,08,11,03,7.70
2010,04,08,11,04,7.70
2010,04,08,11,05,7.70
2010,04,08,11,06,7.60
2010,04,08,11,07,7.60
2010,04,08,11,08,7.60
2010,04,08,11,09,7.60
2010,04,08,11,10,7.70
2010,04,08,11,11,7.70
2010,04,08,11,12,7.70
2010,04,08,11,13,7.80
2010,04,08,11,14,7.90
2010,04,08,11,15,8.00
2010,04,08,11,16,8.10
2010,04,08,11,17,8.00
2010,04,08,11,18,8.00
2010,04,08,11,19,8.10
2010,04,08,11,20,8.10
2010,04,08,11,21,8.20
2010,04,08,11,22,8.20
2010,04,08,11,23,8.20
2010,04,08,11,24,8.30
2010,04,08,11,25,8.30
2010,04,08,11,26,8.40
2010,04,08,11,27,8.50
2010,04,08,11,28,8.50
2010,04,08,11,29,8.50
2010,04,08,11,30,8.50
2010,04,08,11,31,8.50
2010,04,08,11,32,8.30
2010,04,08,11,33,8.30
2010,04,08,11,34,8.30
2010,04,08,11,35,8.30
2010,04,08,11,36,8.30
2010,04,08,11,37,8.40
2010,04,08,11,38,8.40
2010,04,08,11,39,8.40
2010,04,08,11,40,8.40
2010,04,08,11,41,8.30
2010,04,08,11,42,8.20
2010,04,08,11,43,8.10
2010,04,08,11,44,8.20
2010,04,08,11,45,8.20
2010,04,08,11,46,8.30
2010,04,08,11,47,8.30
2010,04,08,11,48,8.30
2010,04,08,11,49,8.30
2010,04,08,11,50,8.40
2010,04,08,11,51,8.40
2010,04,08,11,52,8.40
2010,04,08,11,53,8.50
2010,04,08,11,54,8.60
2010,04,08,11,55,8.60
2010,04,08,11,56,8.50
2010,04,08,11,57,8.40
2010,04,08,11,58,8.30
2010,04,08,11,59,8.30
2010,04,08,12,00,8.30
2010,04,08,12,01,8.30
2010,04,08,12,02,8.30
2010,04,08,12,03,8.30
2010,04,08,12,04,8.30
2010,04,08,12,05,8.30
2010,04,08,12,06,8.30
2010,04,08,12,07,8.40
2010,04,08,12,08,8.40
2010,04,08,12,09,8.50
2010,04,08,12,10,8.60
2010,04,08,12,11,8.70
2010,04,08,12,12,8.70
2010,04,08,12,13,8.60
2010,04,08,12,14,8.60
2010,04,08,12,15,8.50
2010,04,08,12,16,8.50
2010,04,08,12,17,8.50
2010,04,08,12,18,8.60
2010,04,08,12,19,8.60
2010,04,08,12,20,8.60
2010,04,08,12,21,8.60
2010,04,08,12,22,8.60
2010,04,08,12,23,8.50
2010,04,08,12,24,8.40
2010,04,08,12,25,8.40
2010,04,08,12,26,8.40
2010,04,08,12,27,8.50
2010,04,08,12,28,8.70
2010,04,08,12,29,8.80
2010,04,08,12,30,8.80
2010,04,08,12,31,8.90
2010,04,08,12,32,9.00
2010,04,08,12,33,9.20
2010,04,08,12,34,9.20
2010,04,08,12,35,9.00
2010,04,08,12,36,9.00
2010,04,08,12,37,8.90
2010,04,08,12,38,8.90
2010,04,08,12,39,8.90
2010,04,08,12,40,8.80
2010,04,08,12,41,8.80
2010,04,08,12,42,8.80
2010,04,08,12,43,8.70
2010,04,08,12,44,8.70
2010,04,08,12,45,8.70
2010,04,08,12,46,8.70
2010,04,08,12,47,8.60
2010,04,08,12,48,8.60
2010,04,08,12,49,8.70
2010,04,08,12,50,8.70
2010,04,08,12,51,8.70
2010,04,08,12,52,8.50
2010,04,08,12,53,8.50
2010,04,08,12,54,8.40
2010,04,08,12,55,8.20
2010,04,08,12,56,8.10
2010,04,08,12,57,8.00
2010,04,08,12,58,7.90
2010,04,08,12,59,7.90
2010,04,08,13,00,7.90
2010,04,08,13,01,8.00
2010,04,08,13,02,8.10
2010,04,08,13,03,8.10
2010,04,08,13,04,8.10
2010,04,08,13,05,8.10
2010,04,08,13,06,8.00
2010,04,08,13,07,8.00
2010,04,08,13,08,7.90
2010,04,08,13,09,7.90
2010,04,08,13,10,8.00
2010,04,08,13,11,8.00
2010,04,08,13,12,8.10
2010,04,08,13,13,8.20
2010,04,08,13,14,8.30
2010,04,08,13,15,8.40
2010,04,08,13,16,8.40
2010,04,08,13,17,8.40
2010,04,08,13,18,8.50
2010,04,08,13,19,8.70
2010,04,08,13,20,8.80
2010,04,08,13,21,9.00
2010,04,08,13,22,9.20
2010,04,08,13,23,9.20
2010,04,08,13,24,9.20
2010,04,08,13,25,9.20
2010,04,08,13,26,9.20
2010,04,08,13,27,9.30
2010,04,08,13,28,9.30
2010,04,08,13,29,9.30
2010,04,08,13,30,9.30
2010,04,08,13,31,9.30
2010,04,08,13,32,9.30
2010,04,08,13,33,9.20
2010,04,08,13,34,9.20
2010,04,08,13,35,9.10
2010,04,08,13,36,9.00
2010,04,08,13,37,9.00
2010,04,08,13,38,8.90
2010,04,08,13,39,8.80
2010,04,08,13,40,8.80
2010,04,08,13,41,8.80
2010,04,08,13,42,8.80
2010,04,08,13,43,8.80
2010,04,08,13,44,8.90
2010,04,08,13,45,8.90
2010,04,08,13,46,8.90
2010,04,08,13,47,9.00
2010,04,08,13,48,9.10
2010,04,08,13,49,9.30
2010,04,08,13,50,9.40
2010,04,08,13,51,9.60
2010,04,08,13,52,9.80
2010,04,08,13,53,10.00
2010,04,08,13,54,10.10
2010,04,08,13,55,10.10
2010,04,08,13,56,10.10
2010,04,08,13,57,10.00
2010,04,08,13,58,9.90
2010,04,08,13,59,9.90
2010,04,08,14,00,9.90
2010,04,08,14,01,9.90
2010,04,08,14,02,9.80
2010,04,08,14,03,9.70
2010,04,08,14,04,9.50
2010,04,08,14,05,9.50
2010,04,08,14,06,9.50
2010,04,08,14,07,9.60
2010,04,08,14,08,9.60
2010,04,08,14,09,9.60
2010,04,08,14,10,9.50
2010,04,08,14,11,9.30
2010,04,08,14,12,9.30
2010,04,08,14,13,9.30
2010,04,08,14,14,9.40
2010,04,08,14,15,9.50
2010,04,08,14,16,9.60
2010,04,08,14,17,9.70
2010,04,08,14,18,9.80
2010,04,08,14,19,9.90
2010,04,08,14,20,9.90
2010,04,08,14,21,9.80
2010,04,08,14,22,9.70
2010,04,08,14,23,9.60
2010,04,08,14,24,9.60
2010,04,08,14,25,9.50
2010,04,08,14,26,9.40
2010,04,08,14,27,9.20
2010,04,08,14,28,9.10
2010,04,08,14,29,9.10
2010,04,08,14,30,9.10
2010,04,08,14,31,9.20
2010,04,08,14,32,9.30
2010,04,08,14,33,9.40
2010,04,08,14,34,9.50
2010,04,08,14,35,9.70
2010,04,08,14,36,9.90
2010,04,08,14,37,10.00
2010,04,08,14,38,10.10
2010,04,08,14,39,10.10
2010,04,08,14,40,10.00
2010,04,08,14,41,10.00
2010,04,08,14,42,9.80
2010,04,08,14,43,9.70
2010,04,08,14,44,9.80
2010,04,08,14,45,9.80
2010,04,08,14,46,9.90
2010,04,08,14,47,10.00
2010,04,08,14,48,10.10
2010,04,08,14,49,10.20
2010,04,08,14,50,10.30
2010,04,08,14,51,10.40
2010,04,08,14,52,10.40
2010,04,08,14,53,10.40
2010,04,08,14,54,10.40
2010,04,08,14,55,10.30
2010,04,08,14,56,10.30
2010,04,08,14,57,10.40
2010,04,08,14,58,10.40
2010,04,08,14,59,10.40
2010,04,08,15,00,10.40
2010,04,08,15,01,10.40
2010,04,08,15,02,10.30
2010,04,08,15,03,10.30
2010,04,08,15,04,10.30
2010,04,08,15,05,10.30
2010,04,08,15,06,10.40
2010,04,08,15,07,10.50
2010,04,08,15,08,10.60
2010,04,08,15,09,10.50
2010,04,08,15,10,10.30
2010,04,08,15,11,10.20
2010,04,08,15,12,10.20
2010,04,08,15,13,10.10
2010,04,08,15,14,10.00
2010,04,08,15,15,9.90
2010,04,08,15,16,9.80
2010,04,08,15,17,9.80
2010,04,08,15,18,9.80
2010,04,08,15,19,9.80
2010,04,08,15,20,9.80
2010,04,08,15,21,9.70
2010,04,08,15,22,9.60
2010,04,08,15,23,9.50
2010,04,08,15,24,9.40
2010,04,08,15,25,9.30
2010,04,08,15,26,9.10
2010,04,08,15,27,9.00
2010,04,08,15,28,8.90
2010,04,08,15,29,8.80
2010,04,08,15,30,8.80
2010,04,08,15,31,8.80
2010,04,08,15,32,8.80
2010,04,08,15,33,8.80
2010,04,08,15,34,8.80
2010,04,08,15,35,8.70
2010,04,08,15,36,8.60
2010,04,08,15,37,8.60
2010,04,08,15,38,8.50
2010,04,08,15,39,8.50
2010,04,08,15,40,8.40
2010,04,08,15,41,8.40
2010,04,08,15,42,8.40
2010,04,08,15,43,8.40
2010,04,08,15,44,8.40
2010,04,08,15,45,8.40
2010,04,08,15,46,8.50
2010,04,08,15,47,8.50
2010,04,08,15,48,8.40
2010,04,08,15,49,8.40
2010,04,08,15,50,8.40
2010,04,08,15,51,8.30
2010,04,08,15,52,8.30
2010,04,08,15,53,8.30
2010,04,08,15,54,8.30
2010,04,08,15,55,8.30
2010,04,08,15,56,8.30
2010,04,08,15,57,8.30
2010,04,08,15,58,8.30
2010,04,08,15,59,8.20
2010,04,08,16,00,8.20
2010,04,08,16,01,8.10
2010,04,08,16,02,8.10
2010,04,08,16,03,8.10
2010,04,08,16,04,8.10
2010,04,08,16,05,8.10
2010,04,08,16,06,8.10
2010,04,08,16,07,8.10
2010,04,08,16,08,8.10
2010,04,08,16,09,8.10
2010,04,08,16,10,8.10
2010,04,08,16,11,8.10
2010,04,08,16,12,8.10
2010,04,08,16,13,8.10
2010,04,08,16,14,8.10
2010,04,08,16,15,8.20
2010,04,08,16,16,8.20
2010,04,08,16,17,8.20
2010,04,08,16,18,8.20
2010,04,08,16,19,8.20
2010,04,08,16,20,8.20
2010,04,08,16,21,8.20
2010,04,08,16,22,8.20
2010,04,08,16,23,8.20
2010,04,08,16,24,8.20
2010,04,08,16,25,8.30
2010,04,08,16,26,8.30
2010,04,08,16,27,8.30
2010,04,08,16,28,8.30
2010,04,08,16,29,8.20
2010,04,08,16,30,8.20
2010,04,08,16,31,8.20
2010,04,08,16,32,8.20
2010,04,08,16,33,8.10
2010,04,08,16,34,8.10
2010,04,08,16,35,8.10
2010,04,08,16,36,8.00
2010,04,08,16,37,8.00
2010,04,08,16,38,7.90
2010,04,08,16,39,7.80
2010,04,08,16,40,7.70
2010,04,08,16,41,7.70
2010,04,08,16,42,7.60
2010,04,08,16,43,7.60
2010,04,08,16,44,7.50
2010,04,08,16,45,7.50
2010,04,08,16,46,7.40
2010,04,08,16,47,7.40
2010,04,08,16,48,7.40
2010,04,08,16,49,7.40
2010,04,08,16,50,7.40
2010,04,08,16,51,7.40
2010,04,08,16,52,7.40
2010,04,08,16,53,7.40
2010,04,08,16,54,7.40
2010,04,08,16,55,7.40
2010,04,08,16,56,7.40
2010,04,08,16,57,7.40
2010,04,08,16,58,7.40
2010,04,08,16,59,7.40
2010,04,08,17,00,7.50
2010,04,08,17,01,7.50
2010,04,08,17,02,7.50
2010,04,08,17,03,7.60
2010,04,08,17,04,7.60
2010,04,08,17,05,7.70
2010,04,08,17,06,7.70
2010,04,08,17,07,7.70
2010,04,08,17,08,7.80
2010,04,08,17,09,7.80
2010,04,08,17,10,7.80
2010,04,08,17,11,7.80
2010,04,08,17,12,7.80
2010,04,08,17,13,7.90
2010,04,08,17,14,8.00
2010,04,08,17,15,8.10
2010,04,08,17,16,8.20
2010,04,08,17,17,8.30
2010,04,08,17,18,8.40
2010,04,08,17,19,8.50
2010,04,08,17,20,8.50
2010,04,08,17,21,8.50
2010,04,08,17,22,8.40
2010,04,08,17,23,8.50
2010,04,08,17,24,8.50
2010,04,08,17,25,8.60
2010,04,08,17,26,8.70
2010,04,08,17,27,8.80
2010,04,08,17,28,8.80
2010,04,08,17,29,8.80
2010,04,08,17,30,8.90
2010,04,08,17,31,8.90
2010,04,08,17,32,8.90
2010,04,08,17,33,9.00
2010,04,08,17,34,9.00
2010,04,08,17,35,9.00
2010,04,08,17,36,9.00
2010,04,08,17,37,8.90
2010,04,08,17,38,8.80
2010,04,08,17,39,8.70
2010,04,08,17,40,8.70
2010,04,08,17,41,8.60
2010,04,08,17,42,8.50
2010,04,08,17,43,8.40
2010,04,08,17,44,8.40
2010,04,08,17,45,8.40
2010,04,08,17,46,8.40
2010,04,08,17,47,8.30
2010,04,08,17,48,8.20
2010,04,08,17,49,8.20
2010,04,08,17,50,8.10
2010,04,08,17,51,8.10
2010,04,08,17,52,8.00
2010,04,08,17,53,7.90
2010,04,08,17,54,7.80
2010,04,08,17,55,7.70
2010,04,08,17,56,7.60
2010,04,08,17,57,7.60
2010,04,08,17,58,7.50
2010,04,08,17,59,7.50
2010,04,08,18,00,7.40
2010,04,08,18,01,7.40
2010,04,08,18,02,7.40
2010,04,08,18,03,7.40
2010,04,08,18,04,7.40
2010,04,08,18,05,7.40